Regional Weather Roundup
Issued by NWS Boston, MA

Home | Current Version | Previous Version | Text Only | Print | Product List | Glossary On
Versions: 1 2 3 4 5 6 7 8 9 10 11 12 13 14 15 16 17 18 19 20 21 22 23 24 25 26 27 28
000
ASUS41 KBOX 250610
RWRBOX

REGIONAL WEATHER ROUNDUP
NATIONAL WEATHER SERVICE TAUNTON MA
200 AM EDT SUN SEP 25 2016

NOTE:  "FAIR" INDICATES FEW OR NO CLOUDS BELOW 12,000 FEET WITH NO
SIGNIFICANT WEATHER AND/OR OBSTRUCTIONS TO VISIBILITY.

MAZALL-250700-
EASTERN MASSACHUSETTS

CITY           SKY/WX    TMP DP  RH WIND       PRES   REMARKS
BOSTON         CLEAR     54  39  57 NW10      30.09S
6HR MIN TEMP:  54; 6HR MAX TEMP:  61;

BEVERLY        CLEAR     49  40  71 NW6       30.09R
LAWRENCE       CLEAR     50  40  68 N5        30.12R
BEDFORD        CLEAR     49  37  63 W10       30.09S
BLUE HILL      NOT AVBL
NORWOOD        CLEAR     49  38  65 NW3       30.10R
MARSHFIELD     CLEAR     48  39  71 W5        30.08S
PLYMOUTH       CLEAR     48  39  71 NW5       30.09S
TAUNTON        CLEAR     39  37  92 CALM      30.09S
NEW BEDFORD    CLEAR     50  39  66 NW3       30.08S
$$

MAZALL-250700-
CAPE COD AND THE ISLANDS

CITY           SKY/WX    TMP DP  RH WIND       PRES   REMARKS
FALMOUTH       CLEAR     46  41  81 NW6       30.07S
HYANNIS        CLEAR     58  39  49 NW13G20   30.05S
CHATHAM        PTCLDY    58  39  49 NW9       30.06S
PROVINCETOWN   CLEAR     58  43  57 N17G26    30.07R
NANTUCKET      CLEAR     59  38  45 NW17G24   30.06S
MARTHAS VNYRD  CLEAR     51  40  65 NW8       30.08S
$$

MAZALL-250700-
CENTRAL AND WESTERN MASSACHUSETTS

CITY           SKY/WX    TMP DP  RH WIND       PRES   REMARKS
WORCESTER      CLEAR     50  35  56 NW10      30.12R
6HR MIN TEMP:  48; 6HR MAX TEMP:  55;

FITCHBURG      CLEAR     46  39  76 N3        30.14R
ORANGE         CLEAR     39  39 100 CALM      30.14S
SPRINGFIELD    CLEAR     39  39 100 E1        30.13R
WESTFIELD      CLEAR     43  41  93 CALM      30.14R
NORTH ADAMS    PTCLDY    39  37  92 CALM      30.17R
PITTSFIELD     CLEAR     44  36  73 W6        30.15R
$$

RIZALL-250700-
RHODE ISLAND

CITY           SKY/WX    TMP DP  RH WIND       PRES   REMARKS
PROVIDENCE     NOT AVBL
NEWPORT        CLEAR     55  41  59 NW8       30.10R
BLOCK ISLAND   CLEAR     56  45  66 NW6       30.11S
SMITHFIELD     CLEAR     46  39  76 W6        30.11S
WESTERLY       CLEAR     46  42  86 CALM      30.12S
$$

CTZALL-250700-
CONNECTICUT

CITY           SKY/WX    TMP DP  RH WIND       PRES   REMARKS
BRADLEY INTL   CLEAR     44  41  89 N6        30.15R
6HR MIN TEMP:  44; 6HR MAX TEMP:  53;

HARTFORD       CLEAR     48  46  93 CALM      30.14R
BRIDGEPORT     CLEAR     56  40  55 N3        30.14
DANBURY        CLEAR     43  40  89 SW3       30.17R
GROTON         CLEAR     51  45  79 N5        30.12R
NEW HAVEN      CLEAR     50  42  74 N6        30.14R
CHESTER        FAIR      52  41  66 CALM      30.13S
MERIDEN        CLEAR     46  43  89 SE3       30.14S
WILLIMANTIC    CLOUDY    46  45  96 CALM      30.14S
OXFORD           N/A     46  37  71 N5        30.16S
$$

MEZ002-015-021-024-NHZ003-005-008-011-012-014-VTZ005-008-250700-
NORTHERN NEW ENGLAND

CITY           SKY/WX    TMP DP  RH WIND       PRES   REMARKS
PORTLAND ME    CLEAR     49  32  52 NW7       30.09R
6HR MIN TEMP:  46; 6HR MAX TEMP:  56;

BANGOR ME      PTCLDY    43  33  68 W8        30.03S
CONCORD NH     CLEAR     46  37  71 NW7       30.12R
MANCHESTER NH  CLEAR     50  38  63 NW9       30.10R
NASHUA NH      CLEAR     44  40  85 NW8       30.12R
PORTSMOUTH NH  CLEAR     45  38  76 NW5       30.09R
JAFFREY NH     CLEAR     45  38  76 CALM      30.14R
KEENE NH       CLOUDY    38  37  97 CALM      30.16R
BURLINGTON VT  CLEAR     46  36  68 CALM      30.18R
MT. WASHINGTON FOG       23  23 100 NW58        N/A  VSB 0   WCI   0
$$

NYZ052-076-250700-
EASTERN NEW YORK

CITY           SKY/WX    TMP DP  RH WIND       PRES   REMARKS
ALBANY         CLEAR     45  39  79 W3        30.18R
6HR MIN TEMP:  45; 6HR MAX TEMP:  54;

NEW YORK CITY  CLEAR     62  44  51 N9        30.15R
6HR MIN TEMP:  62; 6HR MAX TEMP:  68;

$$

ANZALL-250700-
MARINE OBSERVATIONS

STATION/POSITION TIME  TEMP    WIND        PRES    VSBY  WAVE
                       AIR SEA DIR/SP/G                  HT/PER
                 (UTC) (F)     (DEG/KT/KT) (MB)    (MI)  (FT/S)
BOSTON BUOY      0550   58 64  320/ 21/ 25 1017.8R         3/ 4
BUZZARDS BAY     0500   60     340/ 13/ 15 1019.1F
NANTUCKET SOUND  0550   61 67  330/ 19/ 23 1017.6R         2/ 3
MASS BAY-STELLWA 0504   58 61  310/ 17/ 19 1017.6F  1 7/8  3/ 3
ISLE OF SHOALS   0600   53     330/ 15/ 17 1018.6R
S OF BLOCK IS    0555      67                N/A           4/11
$$

......................KEY.........................
  SKY/WX - SKY CONDITION/PRESENT WEATHER
  TMP    - TEMPERATURE IN FAHRENHEIT
  DWPT   - DEWPOINT IN FAHRENHEIT
  RH     - RELATIVE HUMIDITY IN PERCENT
  WIND   - DIRECTION AND SPEED IN MPH
  PRES   - MEAN SEA LEVEL PRESSURE IN INCHES OF HG
  WCI    - WIND CHILL INDEX
  VSB    - VISIBILITY IN MILES
  HX     - HEAT INDEX
  TC     - TEMPERATURE IN CELSIUS
  VRB    - VARIABLE WIND DIRECTION
  N/A    - NOT AVAILABLE




USA.gov is the U.S. government's official web portal to all federal, state and local government web resources and services.